Regional Weather Roundup
Issued by NWS Jackson, KY

Home | Current Version | Previous Version | Text Only | Print | Product List | Glossary On
Versions: 1 2 3 4 5 6 7 8 9 10 11 12 13 14 15 16 17 18 19 20 21 22 23 24 25 26 27 28 29 30 31 32 33 34 35 36 37 38 39 40 41 42 43 44 45 46 47 48 49 50
000
ASUS43 KJKL 202119
RWRJKL

EAST KENTUCKY HOURLY WEATHER ROUNDUP
NATIONAL WEATHER SERVICE JACKSON KY
500 PM EDT SUN APR 20 2014

NOTE: "FAIR" INDICATES FEW OR NO CLOUDS BELOW 12,000 FEET WITH
NO SIGNIFICANT WEATHER AND/OR OBSTRUCTIONS TO VISIBILITY.

* THESE REPORTS ARE NOT UNDER NWS QUALITY CONTROL AND MAY NOT
  REPORT WEATHER SUCH AS PRECIPITATION AND FOG.

KYZ079-080-083-085-087-088-110-112-115-119-120-202200
...EASTERN KENTUCKY...

CITY           SKY/WX    TMP DP  RH WIND       PRES   REMARKS
JACKSON        SUNNY     76  27  16 VRB3      30.16F
LONDON         SUNNY     78  37  22 CALM      30.15F
SOMERSET*      SUNNY     75  36  23 CALM      30.15F
MONTICELLO*    MOSUNNY   78  42  27 N6        30.15F
MIDDLESBORO*   SUNNY     77  37  23 E5        30.15F
HARLAN APT*    CLEAR     77  32  19 CALM      30.14F
BLACK MTN*       N/A     70  21  16 E2          N/A
PIKEVILLE APT* SUNNY     73  30  20 SE3       30.16F
BIG SANDY*     CLEAR     77  30  17 SE7       30.16F
ASHLAND*       SUNNY     75  34  22 CALM      30.14F
$$

KYZ035-036-041-042-044-050-067-078-099-202200
...CENTRAL KENTUCKY...

CITY           SKY/WX    TMP DP  RH WIND       PRES   REMARKS
MT STERLING*   SUNNY     75  41  29 CALM      30.17F
FLEMING/MASON* SUNNY     75  41  29 SW5       30.17F
DANVILLE*      SUNNY     75  39  27 CALM      30.16F
LEXINGTON      SUNNY     75  39  27 S7        30.16F
FRANKFORT      SUNNY     76  39  26 E3        30.14F
$$

KYZ091>093-OHZ055-061-077-WVZ005-015-034-035-042-202200
...SOUTHERN OHIO/WEST VIRGINIA...

CITY           SKY/WX    TMP DP  RH WIND       PRES   REMARKS
COVINGTON      MOSUNNY   75  33  21 VRB3      30.16F
COLUMBUS       PTSUNNY   75  36  24 S7        30.17F
DAYTON         PTSUNNY   72  36  26 SW8       30.18F
WILMINGTON     SUNNY     74  38  27 SW12      30.17F
HUNTINGTON     SUNNY     78  26  14 VRB3      30.15F
CHARLESTON     MOSUNNY   77  19  11 VRB6      30.15F
PINEVILLE*     SUNNY     77  30  17 MISG      30.23F
BECKLEY        SUNNY     68  24  19 SE8       30.22F
BLUEFIELD      SUNNY     70  23  17 VRB7      30.23F
$$

VAZ002-007-008-TNZ017-027-036-066-071-202200
...SOUTHWEST VIRGINIA/EAST TENNESSEE...

CITY           SKY/WX    TMP DP  RH WIND       PRES   REMARKS
WISE*          SUNNY     73  12   9 SE6       30.21F
ABINGDON*      SUNNY     73  26  17 E6        30.18F
BRISTOL        MOSUNNY   75  26  16 NW5       30.16F
KNOXVILLE      MOSUNNY   75  40  28 N8        30.14F
OAK RIDGE      SUNNY     78  37  22 NE6       30.15F
CROSSVILLE     SUNNY     76  34  21 N6        30.16F
NASHVILLE      MOSUNNY   80  38  22 CALM      30.14F
$$

...KEY TO REMARKS...
VSB - VISIBILITY IN MILES
WCI - WIND CHILL INDEX
HX  - HEAT INDEX

$$



USA.gov is the U.S. government's official web portal to all federal, state and local government web resources and services.